Weather History for Erzincan, Turkey

Change the Weather History Date:

Saturday, December 15, 2012

  Actual Average Record
Temperature  
Mean Temperature 29 °F -  
Max Temperature 39 °F 37 °F - ()
Min Temperature 19 °F 23 °F - ()
Degree Days  
Heating Degree Days 36    
Moisture  
Dew Point 19 °F    
Average Humidity 73    
Maximum Humidity 93    
Minimum Humidity 28    
Precipitation  
Precipitation 0.00 in 0.04 in - ()
Sea Level Pressure  
Sea Level Pressure 30.21 in    
Wind  
Wind Speed 1 mph ()    
Max Wind Speed 4 mph    
Max Gust Speed -    
Visibility 6.8 miles    
Events      
T = Trace of Precipitation, MM = Missing Value Source: Averaged Metar Reports

Daily Weather History Graph

Daily Weather History Graph

Search for Another Location

Airport:

Trip Planner

Search our weather history database for the weather conditions in past years. The results will help you decide how hot, cold, wet, or windy it might be!

Date:

Astronomy

Dec. 15, 2012 Rise Set
Actual Time 6:35 AM EET 3:58 PM EET
Civil Twilight 6:05 AM EET 4:28 PM EET
Nautical Twilight 5:31 AM EET 5:02 PM EET
Astronomical Twilight 4:58 AM EET 5:35 PM EET
Moon 8:12 AM EET (12/15) 6:36 PM EET (12/15)
Length of Visible Light 10h 23m
Length of Day
9h 22m
Waxing Crescent, 6% of the Moon is Illuminated
Dec 15
Waxing Crescent
Dec 20
First Quarter
Dec 28
Full
Jan 5
Last Quarter
Jan 11
New

Hourly Weather History & Observations

Time (EET) Temp. Windchill Dew Point Humidity Pressure Visibility Wind Dir Wind Speed Gust Speed Precip Events Conditions
12:50 AM 26.6 °F - 19.4 °F 74% 30.24 in 6.2 mi Variable 2.3 mph - N/A   Scattered Clouds
1:50 AM 23.0 °F - 21.2 °F 93% 30.24 in - Calm Calm - N/A   Clear
2:00 AM 24 °F - 20 °F 80%  in 12 mi Calm Calm - -   Partly Cloudy
2:50 AM 23.0 °F - 19.4 °F 86% 30.24 in - Calm Calm - N/A   Clear
3:50 AM 21.2 °F - 19.4 °F 93% 30.24 in - NNW 2.3 mph - N/A   Clear
5:50 AM 21.2 °F - 19.4 °F 93% 30.24 in - Calm Calm - N/A   Clear
7:50 AM 24.8 °F - 21.2 °F 86% 30.27 in - East 1.2 mph - N/A   Clear
8:00 AM 25 °F - 22 °F 81%  in 12 mi East 1.2 mph - -  
8:50 AM 30.2 °F - 23.0 °F 75% 30.27 in - Calm Calm - N/A   Clear
9:50 AM 32.0 °F - 19.4 °F 60% 30.27 in 6.2 mi Variable 1.2 mph - N/A   Scattered Clouds
10:50 AM 33.8 °F - 17.6 °F 52% 30.24 in 6.2 mi Variable 1.2 mph - N/A   Scattered Clouds
11:50 AM 35.6 °F - 19.4 °F 52% 30.21 in 6.2 mi Variable 2.3 mph - N/A   Scattered Clouds
12:50 PM 37.4 °F - 17.6 °F 45% 30.21 in 6.2 mi Variable 1.2 mph - N/A   Scattered Clouds
1:50 PM 37.4 °F 34.9 °F 17.6 °F 45% 30.18 in 6.2 mi SW 3.5 mph - N/A   Scattered Clouds
2:00 PM 37 °F - 15 °F 28%  in 6 mi SW 3.5 mph - -   Partly Cloudy
2:50 PM 37.4 °F 34.9 °F 15.8 °F 41% 30.18 in 6.2 mi SW 3.5 mph - N/A   Scattered Clouds
3:50 PM 32.0 °F - 17.6 °F 55% 30.18 in 6.2 mi SW 1.2 mph - N/A   Scattered Clouds
4:50 PM 30.2 °F - 21.2 °F 69% 30.18 in 6.2 mi Variable 1.2 mph - N/A   Scattered Clouds
5:50 PM 24.8 °F - 17.6 °F 74% 30.18 in 6.2 mi SSE 1.2 mph - N/A   Scattered Clouds
6:50 PM 26.6 °F - 21.2 °F 80% 30.18 in 6.2 mi NNW 2.3 mph - N/A   Scattered Clouds
7:50 PM 23.0 °F - 19.4 °F 86% 30.18 in 6.2 mi Calm Calm - N/A   Scattered Clouds
8:00 PM 24 °F - 20 °F 80%  in 6 mi Calm Calm - -   Partly Cloudy
8:50 PM 23.0 °F - 19.4 °F 86% 30.15 in 6.2 mi Calm Calm - N/A   Scattered Clouds
9:50 PM 21.2 °F - 17.6 °F 86% 30.18 in 6.2 mi Calm Calm - N/A   Scattered Clouds
10:50 PM 21.2 °F - 19.4 °F 93% 30.15 in 6.2 mi Calm Calm - N/A   Scattered Clouds
11:50 PM 21.2 °F - 19.4 °F 93% 30.15 in 6.2 mi Calm Calm - N/A   Scattered Clouds